sat.trackr.live / text

‹ back to catalog

STARLINK-30926

NORAD 58448 · 2023-183M

PAYLOAD ACTIVE UNKNOWN

§ Identity

Operator
Country
US
Launch date
2023-11-28
Launch site
AFETR
Launch vehicle
Mass (kg)
RCS (m²)

Purposes: comms

External: N2YO · Heavens-Above · Gunter

§ Orbital elements

Epoch: 2026-05-24T21:30:31.804416Z

Period
94.27 min
Inclination
43.0039°
Eccentricity
0.0001223
Mean motion
15.27578230 rev/d
Perigee alt
482.2 km
Apogee alt
483.9 km
Semi-major
6,861.2 km
B*
1.9623e-5
RAAN
330.8167°
Arg perigee
271.2232°
Mean anomaly
88.8479°
Rev number
13,839

§ Raw data

STARLINK-309261 58448U 23183M   26144.89620144  .00000278  00000+0  19623-4 0  99982 58448  43.0039 330.8167 0001223 271.2232  88.8479 15.27578230138393

JSON: /api/v1/satellites/58448 · /tle

For live sub-satellite position, see the globe view (requires WebGL).

§ Visibility from observer

Set your observer location to see the next 7 days of passes ≥ 10°. The values pass through the URL so the page stays shareable.

No JS? Fill the form by hand. The geolocation button needs JavaScript.